Cloud_Cover
100 100 100 100 100 100 100 100 91 97 100 100 98 99 27 73 88 3 5 6 40 42 59 100 100 99 1 9 10 58 100 100 65 100 100 100 100 100 100 100 100 100 100 97
100 99 93 100 100 100 100 100 100 100 100 100 100 100 91 97 39 5 5 91 91 100 100 100 100 90 1 0 1 95 100 100 100 100 100 100 100 100 100 100 100 100 100 100
100 100 100 100 100 100 100 100 100 97 100 100 100 100 100 100 100 94 27 100 100 83 100 100 100 96 5 0 0 0 7 94 100 100 100 100 100 100 100 100 100 100 100 100
100 100 100 100 100 100 100 100 100 72 100 100 100 100 100 100 100 100 64 88 100 100 100 100 100 100 30 5 5 0 4 1 2 18 26 78 100 100 100 100 100 100 100 100
100 100 100 100 100 100 100 98 100 100 100 100 100 100 100 100 100 100 100 100 100 100 100 84 96 98 46 12 5 5 5 4 5 5 5 4 2 5 68 100 96 95 86 92
91 97 100 100 100 100 100 100 100 100 100 78 99 100 100 100 99 100 100 100 100 100 99 66 38 99 55 17 5 5 5 5 5 9 91 44 23 42 58 100 100 89 100 100
94 82 100 97 80 73 96 98 51 100 100 100 100 100 100 100 53 22 80 97 93 78 91 94 100 35 57 82 70 22 69 81 87 100 91 17 100 69 100 100 74 80 100 100
99 100 100 100 100 83 20 100 100 100 100 100 76 89 40 47 38 18 6 5 5 5 5 5 8 5 8 25 30 54 66 89 57 12 5 26 29 94 100 100 99 100 100 100
100 99 52 64 100 100 94 100 100 100 100 100 96 64 53 99 98 72 81 38 34 33 44 46 85 61 100 100 29 8 64 16 84 62 68 14 40 100 100 100 100 100 100 100
4 27 70 100 100 100 100 100 100 100 100 100 100 100 100 100 100 100 100 100 100 100 100 100 100 100 100 100 100 100 95 89 70 56 59 76 100 100 100 100 100 100 100 100
4 10 7 34 98 100 92 94 100 100 100 100 100 100 100 100 100 100 100 100 100 100 100 100 100 75 71 84 100 100 100 100 100 100 100 100 100 100 100 91 84 100 100 100
5 4 24 51 56 98 99 100 82 97 100 100 100 100 100 100 99 79 100 100 89 63 52 29 5 5 5 11 20 12 41 100 100 100 100 100 100 100 99 92 100 100 100 100
5 72 65 6 100 72 100 100 100 100 100 100 100 100 100 100 100 86 92 82 50 75 70 99 100 76 11 59 97 99 100 100 100 100 100 100 100 100 100 100 100 100 100 100
100 92 11 67 5 5 98 100 100 100 100 100 100 100 100 100 100 96 86 98 99 84 72 66 66 69 48 48 76 99 100 100 100 100 100 100 100 98 100 100 100 100 100 100
85 89 72 6 40 8 75 100 100 100 100 100 100 100 100 100 100 100 100 100 100 100 100 100 100 91 89 73 44 33 100 100 100 100 100 100 100 100 100 100 100 100 100 100
98 36 46 92 27 78 100 100 100 100 100 100 100 100 100 100 100 100 100 100 100 100 100 100 100 100 100 96 86 71 82 100 100 100 100 100 100 100 100 100 100 100 100 100
100 32 5 38 94 100 100 100 100 100 100 100 100 100 100 100 100 100 95 80 99 100 100 100 100 100 100 100 89 100 100 94 100 100 100 100 100 100 100 100 100 100 100 100
100 100 43 92 98 100 100 100 100 100 100 100 100 100 100 99 96 93 83 96 67 94 100 100 100 100 100 100 100 100 99 100 100 100 100 100 100 100 100 100 100 100 100 100
100 100 100 100 100 100 100 100 100 100 100 100 100 100 100 99 100 100 100 97 43 61 56 98 100 100 100 100 100 100 100 100 100 100 100 100 100 100 100 100 100 100 100 100
100 100 100 100 100 100 100 100 100 100 100 100 100 96 100 100 100 100 100 100 100 100 98 92 100 100 100 100 100 100 100 100 100 100 100 100 100 100 100 100 100 100 100 100
100 100 100 100 100 100 100 100 100 100 100 99 99 97 100 100 100 100 100 100 100 100 100 100 100 100 100 100 100 100 100 100 100 100 100 100 100 100 100 100 100 100 100 100
100 100 100 100 100 98 100 100 100 100 100 100 84 78 76 95 100 100 100 100 100 100 100 100 100 100 88 81 90 80 95 96 100 100 100 100 100 100 100 100 100 100 100 100
89 41 67 86 97 100 99 100 100 100 100 100 100 99 100 100 98 100 100 100 100 100 100 100 100 96 81 79 58 50 28 37 34 51 52 55 100 100 90 100 100 100 100 100
100 100 77 56 99 100 100 100 100 100 100 100 100 100 100 100 100 100 100 100 100 100 100 100 94 76 42 26 7 45 26 25 57 72 62 89 100 100 100 100 97 100 100 100
100 100 100 100 100 100 100 100 100 100 100 100 100 100 100 100 100 100 100 100 100 100 100 100 100 99 60 46 44 96 100 88 83 100 100 100 100 100 100 100 100 100 100 100
92 100 100 100 100 100 100 100 100 100 100 100 100 100 100 100 100 100 100 100 100 100 100 100 100 100 100 100 100 100 100 100 100 100 100 100 100 100 100 96 56 68 77 92
33 73 75 83 54 96 100 100 100 100 100 100 100 100 100 100 100 100 100 100 100 100 100 100 100 100 100 100 100 100 100 100 100 100 100 97 86 70 53 40 50 61 73 58